Epoch = 1998 Sept.24.0 TT
T = 1998 Sept.30.4678 TT Peri. = 161.2491
e = 0.135043 Node = 5.9549 2000.0
q = 3.907590 AU Incl. = 18.7192
a = 4.517671 AU n = 0.1026437 P = 9.602 years
星図
光度変化
m1 = 4.0 + 5 logΔ + 20 log r
軌道要素は Dr. Brian G. Marsden の計算によるもので、
IAUC 8786
に掲載されたものです。
星図は StellaNavigator Ver.2.0 for Windows
(アストロアーツ
編著 / アスキー出版局刊) で作成したものです。
光度グラフはComet for
Windowsで作成したものです。
Copyright(C) Seiichi Yoshida (comet@aerith.net). All rights reserved.